TimeEDT,TemperatureF,Dew PointF,Humidity,Sea Level PressureIn,VisibilityMPH,Wind Direction,Wind SpeedMPH,Gust SpeedMPH,PrecipitationIn,Events,Conditions,WindDirDegrees,DateUTC
12:53 AM,69.1,63.0,81,29.72,10.0,WNW,11.5,-,N/A,,Clear,290,2012-10-28 04:53:00
1:53 AM,68.0,62.1,81,29.71,10.0,WNW,11.5,-,N/A,,Clear,300,2012-10-28 05:53:00
2:53 AM,66.9,62.1,84,29.71,10.0,WNW,11.5,-,N/A,,Clear,290,2012-10-28 06:53:00
3:53 AM,66.9,62.1,84,29.71,10.0,WNW,8.1,-,N/A,,Clear,290,2012-10-28 07:53:00
4:53 AM,66.0,62.1,87,29.71,9.0,WNW,11.5,20.7,N/A,,Clear,300,2012-10-28 08:53:00
5:53 AM,66.0,61.0,84,29.72,9.0,NW,13.8,19.6,N/A,,Clear,310,2012-10-28 09:53:00
6:53 AM,64.9,60.1,84,29.73,9.0,NW,11.5,-,N/A,,Clear,310,2012-10-28 10:53:00
7:53 AM,64.0,60.1,87,29.75,7.0,WNW,10.4,-,N/A,,Clear,300,2012-10-28 11:53:00
8:53 AM,66.0,61.0,84,29.76,7.0,West,11.5,17.3,N/A,,Clear,280,2012-10-28 12:53:00
9:48 AM,69.8,60.8,73,29.77,9.0,WNW,15.0,19.6,N/A,,Mostly Cloudy,290,2012-10-28 13:48:00
9:53 AM,69.1,61.0,75,29.77,9.0,WNW,12.7,-,N/A,,Mostly Cloudy,300,2012-10-28 13:53:00
10:25 AM,70.0,60.1,71,29.77,10.0,WNW,16.1,-,N/A,,Scattered Clouds,290,2012-10-28 14:25:00
11:53 AM,73.0,60.1,64,29.77,10.0,WNW,15.0,21.9,N/A,,Overcast,300,2012-10-28 15:53:00
12:17 PM,72.0,59.0,64,29.77,10.0,WNW,17.3,27.6,N/A,,Scattered Clouds,290,2012-10-28 16:17:00
1:53 PM,75.9,57.9,54,29.73,10.0,WNW,15.0,-,N/A,,Scattered Clouds,300,2012-10-28 17:53:00
2:53 PM,75.0,55.9,51,29.71,10.0,WNW,18.4,28.8,N/A,,Clear,300,2012-10-28 18:53:00
3:53 PM,73.9,57.0,55,29.71,10.0,WNW,13.8,23.0,N/A,,Clear,300,2012-10-28 19:53:00
4:53 PM,71.1,55.9,59,29.71,10.0,West,13.8,21.9,N/A,,Mostly Cloudy,280,2012-10-28 20:53:00
5:53 PM,69.1,55.0,61,29.73,10.0,West,12.7,-,N/A,,Overcast,280,2012-10-28 21:53:00
6:53 PM,66.0,54.0,65,29.75,10.0,West,11.5,-,N/A,,Partly Cloudy,280,2012-10-28 22:53:00
7:53 PM,64.0,55.0,73,29.75,10.0,WNW,10.4,-,N/A,,Clear,290,2012-10-28 23:53:00
8:53 PM,63.0,53.1,70,29.78,10.0,West,11.5,-,N/A,,Partly Cloudy,280,2012-10-29 00:53:00
9:53 PM,63.0,51.1,65,29.78,10.0,WNW,20.7,27.6,N/A,,Overcast,290,2012-10-29 01:53:00
10:53 PM,63.0,51.1,65,29.80,10.0,WNW,16.1,23.0,N/A,,Overcast,300,2012-10-29 02:53:00
11:53 PM,61.0,50.0,67,29.82,10.0,NW,21.9,28.8,N/A,,Overcast,310,2012-10-29 03:53:00